Regional Weather Roundup
Issued by NWS

Home | Current Version | Previous Version | Graphics & Text | Print | Product List | Glossary On
Versions: 1 2 3 4 5 6 7 8 9 10 11 12 13 14 15 16 17 18 19 20 21 22 23 24 25 26 27 28 29 30 31 32 33 34 35 36 37 38 39 40 41 42 43 44 45 46 47 48 49 50
000
ASUS45 KABQ 171801
RWRNM
WEATHER ROUNDUP FOR NEW MEXICO
NATIONAL WEATHER SERVICE ALBUQUERQUE NM
1100 AM MST WED DEC 17 2014

NOTE: "FAIR" MEANS FEW OR NO CLOUDS BELOW 12,000 FEET AGL WITH NO
       SIGNIFICANT WEATHER OR OBSTRUCTIONS TO VISION.

      THIS PRODUCT IS RELEASED AS TWO VERSIONS.  ONE VERSION NEAR
      THE TOP OF THE HOUR CONTAINING PRELIMINARY DATA FROM ALBUQUERQUE
      AND OTHER STATIONS.  A FINAL VERSION WITH ADDITIONAL DATA IS
      ISSUED ABOUT 10 MINUTES AFTER THE HOUR.

NMZ501-503-504-510>518-171900-
NORTHWEST PLATEAU/NORTHCENTRAL MOUNTAINS

CITY           SKY/WX    TMP DP  RH WIND       PRES   REMARKS
FARMINGTON     CLOUDY    40  26  57 SW6       30.00R
6HR MIN TEMP:  31; 6HR MAX TEMP:  40;

SANTA FE       LGT SNOW  32  30  92 SW3       30.01F FOG
6HR MIN TEMP:  29; 6HR MAX TEMP:  32; 6HR PCP:  0.07;

TAOS           CLOUDY    30  25  80 CALM      30.01F

$$
NMZ402-403-502-505>509-171900-
WESTCENTRAL MOUNTAINS/SOUTHWEST MOUNTAINS

CITY           SKY/WX    TMP DP  RH WIND       PRES   REMARKS
GALLUP         CLOUDY    35  31  85 SW9       30.03R WCI  28
6HR MIN TEMP:  31; 6HR MAX TEMP:  35; 6HR PCP:  0.14;

GRANTS         CLOUDY    34  32  93 SE3       30.04F
SILVER CITY    CLOUDY    43  36  75 W14       30.12S

$$
NMZ407-409-411-412-171900-
SOUTHERN DESERTS

CITY           SKY/WX    TMP DP  RH WIND       PRES   REMARKS
LORDSBURG      CLOUDY    50  34  53 W10       30.10S
DEMING         CLOUDY    52  35  52 SW21G29   30.09S
6HR MIN TEMP:  36; 6HR MAX TEMP:  53;

HOLLOMAN AFB   SUNNY     55  31  41 S9        30.05F
ALAMOGORDO     MOSUNNY   54  32  43 S10       30.07F
T OR C         MOSUNNY   49  29  46 S7        30.04F
6HR MIN TEMP:  33; 6HR MAX TEMP:  49;


$$
NMZ519>523-171900-
CENTRAL VALLEYS/CENTRAL HIGHLANDS

CITY           SKY/WX    TMP DP  RH WIND       PRES   REMARKS
ALBUQUERQUE    CLOUDY    39  35  86 CALM      30.04S
6HR MIN TEMP:  32; 6HR MAX TEMP:  39; 6HR PCP:  0.11;

DOUBLE EAGLE   DRIZZLE   34  34 100 SW6       30.04S WCI  29
MORIARTY ARPT  CLOUDY    38  30  71 S6        30.03F WCI  34
6HR MIN TEMP:  22; 6HR MAX TEMP:  39;

CLINES CORNERS PTSUNNY   38  30  73 W14       29.99F WCI  30
6HR MIN TEMP:  27; 6HR MAX TEMP:  41; 6HR PCP: TRACE;

BELEN          CLOUDY    38  35  87 CALM      30.05S
6HR MIN TEMP:  32; 6HR MAX TEMP:  38;

SOCORRO        PTSUNNY   41  28  60 CALM      30.04F
6HR MIN TEMP:  33; 6HR MAX TEMP:  41;


$$
NMZ524>526-539-540-171900-
SOUTHCENTRAL MOUNTAINS

CITY           SKY/WX    TMP DP  RH WIND       PRES   REMARKS
RUIDOSO        MOSUNNY   43  27  52 SW26G35   30.05F

$$
NMZ527>531-171900-
NORTHEAST HIGHLANDS/NORTHEAST PLAINS

CITY           SKY/WX    TMP DP  RH WIND       PRES   REMARKS
LAS VEGAS      MOSUNNY   44  30  57 SW18G24   29.96F
6HR MIN TEMP:  23; 6HR MAX TEMP:  44; 6HR PCP: TRACE;

RATON          CLOUDY    31  24  75 SE7       29.96F WCI  24
6HR MIN TEMP:  17; 6HR MAX TEMP:  31;

CLAYTON        PTSUNNY   44  28  53 SW17G24   29.96F
6HR MIN TEMP:  29; 6HR MAX TEMP:  44;


$$
NMZ532>537-171900-
EASTCENTRAL PLAINS

CITY           SKY/WX    TMP DP  RH WIND       PRES   REMARKS
TUCUMCARI      PTSUNNY   51  31  46 SW18      29.99F
6HR MIN TEMP:  30; 6HR MAX TEMP:  51;

CANNON AFB     PTSUNNY   45  31  57 SW9       30.03F
6HR MIN TEMP:  35; 6HR MAX TEMP:  45;

CLOVIS AIRPORT CLOUDY    45  30  57 S15       30.03S

$$
NMZ028-029-538-171900-
SOUTHEAST PLAINS

CITY           SKY/WX    TMP DP  RH WIND       PRES   REMARKS
ROSWELL        SUNNY     49  31  49 S5        30.03F
6HR MIN TEMP:  27; 6HR MAX TEMP:  49;

ARTESIA        SUNNY     48  32  53 S7        30.04F
CARLSBAD       SUNNY     53  33  46 SE7       30.03F
6HR MIN TEMP:  30; 6HR MAX TEMP:  53;

HOBBS          SUNNY     52  36  54 S12       30.05F


$$


USA.gov is the U.S. government's official web portal to all federal, state and local government web resources and services.